Hourly Data Report for October 16, 2015

All times are specified in Local Standard Time (LST). Add 1 hour to adjust for Daylight Saving Time where and when it is observed.

KAMLOOPS A
BRITISH COLUMBIA

50°42'09.000" N
120°26'55.000" W
345.30 m
1163781
71887
YKA

Download Data

Hourly Data (October 2015)
Hourly Data Report for October 16, 2015
Temp Definition
°C
Dew Point Temp Definition
°C
Rel Hum Definition
%
Wind Dir Definition
10's deg

Wind Spd Definition
km/h
Visibility Definition
km
Stn Press Definition
kPa
Hmdx Definition


Wind Chill Definition


Weather Definition


TIME
00:00 Legend Double Dagger 3.3 0.2 80 8 4 64.4 98.16     LegendNANA
01:00 Legend Double Dagger 3.5 0.4 80 10 7 64.4 98.16     Mostly Cloudy
02:00 Legend Double Dagger 3.6 0.7 81 5 4 64.4 98.18     LegendNANA
03:00 Legend Double Dagger 2.6 0.0 83 36 1 64.4 98.14     LegendNANA
04:00 Legend Double Dagger 3.0 0.2 82 11 5 64.4 98.11     Mostly Cloudy
05:00 Legend Double Dagger 3.3 0.2 80 5 4 64.4 98.12     LegendNANA
06:00 Legend Double Dagger 2.5 -0.4 81 2 4 64.4 98.13     LegendNANA
07:00 Legend Double Dagger 2.0 -0.3 85 10 4 64.4 98.13     Mostly Cloudy
08:00 Legend Double Dagger 3.6 0.8 82 7 5 64.4 98.14     LegendNANA
09:00 Legend Double Dagger 6.3 2.0 74 10 8 64.4 98.11     LegendNANA
10:00 Legend Double Dagger 8.4 2.4 66 11 10 64.4 98.05     Mostly Cloudy
11:00 Legend Double Dagger 10.5 2.4 57 10 15 64.4 97.97     LegendNANA
12:00 Legend Double Dagger 12.6 2.2 49 10 16 64.4 97.88     LegendNANA
13:00 Legend Double Dagger 14.2 2.5 45 11 14 64.4 97.78     Mainly Clear
14:00 Legend Double Dagger 16.0 3.2 42 9 12 64.4 97.65     LegendNANA
15:00 Legend Double Dagger 16.9 3.0 39 9 13 64.4 97.57     LegendNANA
16:00 Legend Double Dagger 16.6 3.7 42 10 11 64.4 97.50     Mainly Clear
17:00 Legend Double Dagger 13.9 3.7 50 10 17 64.4 97.46     LegendNANA
18:00 Legend Double Dagger 12.2 3.2 54 6 13 64.4 97.48     LegendNANA
19:00 Legend Double Dagger 10.4 3.0 60 6 13 64.4 97.47     Mainly Clear
20:00 Legend Double Dagger 10.2 2.1 57 7 16 64.4 97.47     LegendNANA
21:00 Legend Double Dagger 8.2 1.8 64 7 8 64.4 97.48     LegendNANA
22:00 Legend Double Dagger 7.7 2.2 68 11 10 64.4 97.50     Clear
23:00 Legend Double Dagger 6.4 2.1 74 11 9 64.4 97.48     LegendNANA

Notes on Data Quality.

Legend

  • E = Estimated
  • M = Missing
  • NA = Not Available
  • ‡ = Partner data that is not subject to review by the National Climate Archives
Date modified: